Flag for Switzerland Weather past 2 weeks in Pratteln, Basel-Land, Switzerland

Now
48 °F

Fog.


Feels Like: 48 °F
Forecast: 50 / 65 °F
Wind: 1 mph from West

Location: Bale-Mulhouse

Current Time: Sep 2, 2014 at 7:47:06 AM

Latest Report: Sep 2, 2014 at 7:00 AM


Visibility: 5 mi

Pressure: 30.15 "Hg

Humidity: 100%

Dew point: 48 °F

Location of PrattelnLocation

Historic Weather in Pratteln — Graph

°F

Pratteln temperature yesterday

Maximum temperature yesterday: 66 °F (at 3:30 PM)
Minimum temperature yesterday: 52 °F (at 11:00 PM)
Average temperature yesterday: 58 °F

Past Weeks' High & Low Weather Summary

 TemperatureHumidityPressure
High79 °F (Aug 28, 6:00 PM)100% (Aug 19, 7:00 AM)30.18 "Hg (Aug 19, 7:00 AM)
Low46 °F (Aug 21, 6:30 AM)40% (Aug 22, 1:30 PM)29.74 "Hg (Aug 26, 5:00 PM)
Average61 °F77%30.03 "Hg
* Reported Aug 18 6:00 AM — Sep 2 6:30 AM, Pratteln, Weather by CustomWeather, © 2014

Note: Actual official high and low records may vary slightly from our data, if they occured in-between our weather recording intervals... More about our weather records

Advertising

Pratteln weather history for previous 24 hours

 ConditionsComfort  
Time TempWeatherWind HumidityBarometerVisibility
6:30 AM
Sep 2
48 °FPassing clouds.3 mph94%30.15 "Hg4 mi
6:00 AM48 °FPassing clouds.No wind94%30.15 "Hg4 mi
5:30 AM46 °FClear.3 mph100%30.12 "Hg2 mi
5:00 AM46 °FPassing clouds.1 mph100%30.15 "Hg5 mi
4:30 AM48 °FClear.1 mph100%30.15 "Hg10 mi
4:00 AM48 °FClear.1 mph94%30.12 "Hg5 mi
3:30 AM46 °FFog.1 mph93%30.15 "Hg3 mi
3:00 AM46 °FClear.2 mph93%30.15 "Hg5 mi
2:30 AM48 °FPassing clouds.2 mph94%30.15 "Hg4 mi
2:00 AM48 °FPassing clouds.2 mph100%30.12 "HgN/A
1:30 AM48 °FClear.1 mph94%30.15 "HgN/A
1:00 AM50 °FClear.2 mph94%30.15 "HgN/A
12:30 AM52 °FPassing clouds.1 mph94%30.15 "HgN/A
12:00 AM52 °FPassing clouds.2 mph94%30.15 "HgN/A
11:30 PM
Sep 1
52 °FPassing clouds.2 mph94%30.15 "HgN/A
11:00 PM52 °FPassing clouds.1 mph94%30.15 "HgN/A
10:00 PM54 °FPassing clouds.5 mph88%30.15 "HgN/A
9:30 PM55 °FPassing clouds.3 mph82%30.15 "HgN/A
9:00 PM55 °FPassing clouds.7 mph82%30.15 "HgN/A
8:30 PM55 °FPassing clouds.7 mph82%30.15 "HgN/A
8:00 PM59 °FPassing clouds.7 mph72%30.15 "HgN/A
7:30 PM63 °FPassing clouds.8 mph64%30.12 "HgN/A
7:00 PM64 °FPassing clouds.7 mph60%30.12 "HgN/A
6:30 PM64 °FPassing clouds.8 mph64%30.12 "HgN/A
6:00 PM66 °FPassing clouds.6 mph56%30.15 "HgN/A
5:30 PM66 °FPassing clouds.7 mph60%30.12 "HgN/A
5:00 PM66 °FPassing clouds.8 mph60%30.15 "HgN/A
4:30 PM64 °FPassing clouds.8 mph64%30.12 "HgN/A
4:00 PM66 °FScattered clouds.9 mph56%30.15 "HgN/A
3:30 PM66 °FScattered clouds.8 mph56%30.15 "HgN/A
3:00 PM63 °FScattered clouds.10 mph64%30.15 "HgN/A
2:30 PM63 °FScattered clouds.7 mph64%30.15 "HgN/A
2:00 PM63 °FScattered clouds.7 mph68%30.15 "HgN/A
1:30 PM63 °FScattered clouds.7 mph68%30.15 "HgN/A
1:00 PM63 °FScattered clouds.8 mph68%30.15 "HgN/A
12:30 PM63 °FScattered clouds.10 mph73%30.15 "HgN/A
12:00 PM61 °FBroken clouds.9 mph83%30.15 "HgN/A
11:30 AM61 °FBroken clouds.10 mph83%30.15 "HgN/A
11:10 AM61 °FPartly sunny.9 mph88%30.15 "HgN/A
10:30 AM59 °FBroken clouds.7 mph82%30.15 "HgN/A
10:00 AM57 °FBroken clouds.3 mph88%30.12 "HgN/A
9:30 AM57 °FPartly sunny.5 mph88%30.12 "HgN/A
9:00 AM55 °FPartly sunny.2 mph100%30.12 "HgN/A
8:30 AM55 °FPartly sunny.No wind94%30.12 "HgN/A
8:00 AM55 °FBroken clouds.2 mph94%30.12 "HgN/A
7:30 AM54 °FPartly cloudy.3 mph100%30.09 "HgN/A
7:00 AM54 °FPassing clouds.2 mph94%30.09 "HgN/A
Weather by CustomWeather, © 2014

See weather overviewHow to use our weather pages